Paso Robles, CA

6:51 PM PDT on October 22, 2017 (GMT -0700)
Paso Robles Municipal

Weather History for KPRB - September, 2015

Change the Weather History Date:

Sunday, September 13, 2015

  Actual Average Record
Temperature  
Mean Temperature 78 °F 70 °F  
Max Temperature 94 °F 89 °F 108 °F (1971)
Min Temperature 62 °F 51 °F 40 °F (1972)
Degree Days  
Heating Degree Days 0 1  
Month to date heating degree days 0 1  
Since 1 July heating degree days 0 9  
Cooling Degree Days 13 6  
Month to date cooling degree days 116 85  
Year to date cooling degree days 1055 818  
Growing Degree Days 28 (Base 50)    
Moisture  
Dew Point 52 °F    
Average Humidity 50    
Maximum Humidity 78    
Minimum Humidity 21    
Precipitation  
Precipitation 0.00 in 0.00 in 0.05 in (2009)
Month to date precipitation 0.00 0.03  
Year to date precipitation 5.26 8.93  
Sea Level Pressure  
Sea Level Pressure 29.81 in    
Wind  
Wind Speed 6 mph (WSW)    
Max Wind Speed 21 mph    
Max Gust Speed 25 mph    
Visibility 10 miles    
Events      
T = Trace of Precipitation, MM = Missing Value Source: NWS Daily Summary

Daily Weather History Graph

Daily Weather History Graph

Search for Another Location

Airport or City:

Trip Planner

Search our weather history database for the weather conditions in past years. The results will help you decide how hot, cold, wet, or windy it might be!

Date:

Astronomy

Sep. 13, 2015 Rise Set
Actual Time 6:43 AM PDT 7:12 PM PDT
Civil Twilight 6:17 AM PDT 7:38 PM PDT
Nautical Twilight 5:47 AM PDT 8:08 PM PDT
Astronomical Twilight 5:16 AM PDT 8:39 PM PDT
Moon 7:04 AM PDT (9/13) 7:30 PM PDT (9/13)
Length of Visible Light 13h 20m
Length of Day
12h 29m
New Moon, 0% of the Moon is Illuminated
Sep 13
New Moon
Sep 21
First Quarter
Sep 27
Full
Oct 4
Last Quarter
Oct 12
New

Hourly Weather History & Observations

Time (PDT) Temp. Heat Index Dew Point Humidity Pressure Visibility Wind Dir Wind Speed Gust Speed Precip Events Conditions
12:53 AM 68.0 °F - 53.1 °F 59% 29.89 in 10.0 mi NW 4.6 mph - N/A   Clear
1:53 AM 68.0 °F - 53.1 °F 59% 29.88 in 10.0 mi NNW 3.5 mph - N/A   Clear
2:53 AM 66.0 °F - 54.0 °F 65% 29.87 in 10.0 mi NNW 5.8 mph - N/A   Clear
3:53 AM 64.0 °F - 54.0 °F 70% 29.86 in 10.0 mi NW 4.6 mph - N/A   Clear
4:53 AM 63.0 °F - 54.0 °F 72% 29.86 in 10.0 mi WNW 3.5 mph - N/A   Clear
5:53 AM 62.1 °F - 54.0 °F 75% 29.85 in 10.0 mi West 3.5 mph - N/A   Clear
6:53 AM 62.1 °F - 54.0 °F 75% 29.86 in 10.0 mi Calm Calm - N/A   Clear
7:53 AM 63.0 °F - 55.0 °F 75% 29.87 in 10.0 mi Calm Calm - N/A   Clear
8:53 AM 66.9 °F - 55.0 °F 66% 29.87 in 10.0 mi Calm Calm - N/A   Clear
9:53 AM 72.0 °F - 55.0 °F 55% 29.87 in 10.0 mi Calm Calm - N/A   Clear
10:53 AM 75.9 °F - 53.1 °F 45% 29.86 in 10.0 mi Calm Calm - N/A   Clear
11:53 AM 82.0 °F - 50.0 °F 33% 29.83 in 10.0 mi ESE 3.5 mph - N/A   Clear
12:53 PM 90.0 °F - 45.0 °F 21% 29.80 in 10.0 mi SE 3.5 mph - N/A   Clear
1:53 PM 93.9 °F - 48.9 °F 21% 29.77 in 10.0 mi SSW 10.4 mph 19.6 mph N/A   Clear
2:53 PM 91.0 °F - 48.9 °F 23% 29.76 in 10.0 mi WSW 18.4 mph - N/A   Clear
3:53 PM 90.0 °F 87.5 °F 53.1 °F 28% 29.74 in 10.0 mi SW 15.0 mph - N/A   Clear
4:53 PM 86.0 °F - 48.9 °F 28% 29.73 in 10.0 mi SW 16.1 mph 24.2 mph N/A   Clear
5:53 PM 84.0 °F - 48.0 °F 28% 29.73 in 10.0 mi SW 13.8 mph - N/A   Clear
6:53 PM 79.0 °F - 46.9 °F 32% 29.73 in 10.0 mi SW 12.7 mph - N/A   Clear
7:53 PM 75.0 °F - 52.0 °F 44% 29.74 in 10.0 mi SSW 13.8 mph - N/A   Clear
8:53 PM 72.0 °F - 55.0 °F 55% 29.75 in 10.0 mi SSW 11.5 mph - N/A   Clear
9:53 PM 71.1 °F - 54.0 °F 55% 29.77 in 10.0 mi South 6.9 mph - N/A   Clear
10:53 PM 69.1 °F - 54.0 °F 58% 29.77 in 10.0 mi SW 4.6 mph - N/A   Clear
11:53 PM 66.0 °F - 53.1 °F 63% 29.76 in 10.0 mi Calm Calm - N/A   Clear